მოღრუბლული
მოღრუბლული
მოღრუბლული
მოღრუბლული
მოღრუბლული
მოღრუბლული
მოღრუბლული
(°C)
(°C)
-1°
-1°
ასა
სა
სა
სა
სა
სა
სა
(km/h)
18-22
19-25
21-29
23-32
24-33
24-33
23-33
(მმ)
0
0
0
0
0
0
0
(%)
0
0
0
0
0
0
0

მზის სიმაღლე

/ 25.4°
sun-icon
UV 1
07:30
18:54
მთვარე ბოლო ფაზაში (268°)
01:59
10:57

METAR თბილისი (UGTB)-თვის

დრო პირობები ტემპერატურა/
ნამი
ქარი ხილვადობა ამინდი ღრუბლები წნევა ცვლილება დაუმუშავებელი
VFR 4°C / -2°C 80º 2kt 9700m - Overcast 4400ft 1019 No Significant change UGTB 030530Z 08002KT 9999 OVC044 04/M02 Q1019 NOSIG
VFR 3°C / -2°C 60º 2kt 9700m - Overcast 4400ft 1019 No Significant change UGTB 030500Z 06002KT 9999 OVC044 03/M02 Q1019 NOSIG
VFR 3°C / -2°C 40º 2kt 9700m - Overcast 4400ft 1019 No Significant change UGTB 030430Z 04002KT 9999 OVC044 03/M02 Q1019 NOSIG
VFR 2°C / -2°C 40º 4kt 9700m - Overcast 4300ft 1019 No Significant change UGTB 030400Z 04004KT 9999 OVC043 02/M02 Q1019 NOSIG
VFR 2°C / -2°C 30º 2kt 9700m - Overcast 4400ft 1019 No Significant change UGTB 030330Z 03002KT 9999 OVC044 02/M02 Q1019 NOSIG
VFR 2°C / -3°C variable 0kt 9700m - Overcast 4400ft 1019 No Significant change UGTB 030230Z 00000KT 9999 OVC044 02/M03 Q1019 NOSIG
VFR 2°C / -3°C variable 0kt 9700m - Overcast 4300ft 1019 No Significant change UGTB 030200Z 00000KT 9999 OVC043 02/M03 Q1019 NOSIG
VFR 2°C / -3°C variable 0kt 9700m - Overcast 4300ft 1019 No Significant change UGTB 030130Z 00000KT 9999 OVC043 02/M03 Q1019 NOSIG
VFR 2°C / -2°C variable 0kt 9700m - Overcast 3800ft 1019 No Significant change UGTB 030100Z 00000KT 9999 OVC038 02/M02 Q1019 NOSIG
VFR 2°C / -2°C variable 0kt 9700m - Overcast 4100ft 1020 No Significant change UGTB 030030Z 00000KT 9999 OVC041 02/M02 Q1020 NOSIG
VFR 3°C / -3°C variable 0kt 9700m - Broken Clouds 3900ft
Overcast 4500ft
1020 No Significant change UGTB 030000Z 00000KT 9999 BKN039 OVC045 03/M03 Q1020 NOSIG
VFR 2°C / -3°C variable 0kt 9700m - Overcast 4200ft 1020 No Significant change UGTB 022330Z 00000KT 9999 OVC042 02/M03 Q1020 NOSIG
VFR 3°C / -3°C variable 0kt 9700m - Overcast 4400ft 1020 No Significant change UGTB 022300Z 00000KT 9999 OVC044 03/M03 Q1020 NOSIG
VFR 2°C / -3°C 2kt 9700m - Overcast 4400ft 1020 No Significant change UGTB 022230Z VRB02KT 9999 OVC044 02/M03 Q1020 NOSIG
VFR 2°C / -3°C 60º 3kt 9700m - Overcast 4500ft 1021 No Significant change UGTB 022200Z 06003KT 9999 OVC045 02/M03 Q1021 NOSIG
VFR 2°C / -3°C 40º 4kt 9700m - Overcast 4600ft 1021 No Significant change UGTB 022130Z 04004KT 9999 OVC046 02/M03 Q1021 NOSIG
VFR 2°C / -3°C 40º variable 350º to 080º 5kt 9700m - Overcast 4700ft 1021 No Significant change UGTB 022100Z 04005KT 350V080 9999 OVC047 02/M03 Q1021 NOSIG
VFR 1°C / -3°C 50º 6kt 9700m - Broken Clouds 4700ft 1021 No Significant change UGTB 022030Z 05006KT 9999 BKN047 01/M03 Q1021 NOSIG
VFR 0°C / -3°C 30º 3kt 9700m - Few Clouds 4700ft 1021 No Significant change UGTB 022000Z 03003KT 9999 FEW047 00/M03 Q1021 NOSIG
VFR 1°C / -4°C 80º 4kt 9700m - Clouds and Visibility OK 1021 No Significant change UGTB 021930Z 08004KT CAVOK 01/M04 Q1021 NOSIG
VFR 2°C / -4°C 110º 6kt 9700m - Clouds and Visibility OK 1021 No Significant change UGTB 021900Z 11006KT CAVOK 02/M04 Q1021 NOSIG
VFR 1°C / -4°C 90º 5kt 9700m - Clouds and Visibility OK 1021 No Significant change UGTB 021830Z 09005KT CAVOK 01/M04 Q1021 NOSIG
VFR 2°C / -4°C 60º 6kt 9700m - Clouds and Visibility OK 1021 No Significant change UGTB 021800Z 06006KT CAVOK 02/M04 Q1021 NOSIG
VFR 2°C / -3°C 50º 7kt 9700m - Clouds and Visibility OK 1021 No Significant change UGTB 021730Z 05007KT CAVOK 02/M03 Q1021 NOSIG

VFR

4°C / -2°C

[მეტი]
ქარი 80º 2kt
ხილვადობა 9700m
ამინდი -
ღრუბლები Overcast 4400ft
წნევა 1019
ცვლილება No Significant change
დაუმუშავებელი UGTB 030530Z 08002KT 9999 OVC044 04/M02 Q1019 NOSIG

VFR

3°C / -2°C

[მეტი]
ქარი 60º 2kt
ხილვადობა 9700m
ამინდი -
ღრუბლები Overcast 4400ft
წნევა 1019
ცვლილება No Significant change
დაუმუშავებელი UGTB 030500Z 06002KT 9999 OVC044 03/M02 Q1019 NOSIG

VFR

3°C / -2°C

[მეტი]
ქარი 40º 2kt
ხილვადობა 9700m
ამინდი -
ღრუბლები Overcast 4400ft
წნევა 1019
ცვლილება No Significant change
დაუმუშავებელი UGTB 030430Z 04002KT 9999 OVC044 03/M02 Q1019 NOSIG

VFR

2°C / -2°C

[მეტი]
ქარი 40º 4kt
ხილვადობა 9700m
ამინდი -
ღრუბლები Overcast 4300ft
წნევა 1019
ცვლილება No Significant change
დაუმუშავებელი UGTB 030400Z 04004KT 9999 OVC043 02/M02 Q1019 NOSIG

VFR

2°C / -2°C

[მეტი]
ქარი 30º 2kt
ხილვადობა 9700m
ამინდი -
ღრუბლები Overcast 4400ft
წნევა 1019
ცვლილება No Significant change
დაუმუშავებელი UGTB 030330Z 03002KT 9999 OVC044 02/M02 Q1019 NOSIG

VFR

2°C / -3°C

[მეტი]
ქარი variable 0kt
ხილვადობა 9700m
ამინდი -
ღრუბლები Overcast 4400ft
წნევა 1019
ცვლილება No Significant change
დაუმუშავებელი UGTB 030230Z 00000KT 9999 OVC044 02/M03 Q1019 NOSIG

VFR

2°C / -3°C

[მეტი]
ქარი variable 0kt
ხილვადობა 9700m
ამინდი -
ღრუბლები Overcast 4300ft
წნევა 1019
ცვლილება No Significant change
დაუმუშავებელი UGTB 030200Z 00000KT 9999 OVC043 02/M03 Q1019 NOSIG

VFR

2°C / -3°C

[მეტი]
ქარი variable 0kt
ხილვადობა 9700m
ამინდი -
ღრუბლები Overcast 4300ft
წნევა 1019
ცვლილება No Significant change
დაუმუშავებელი UGTB 030130Z 00000KT 9999 OVC043 02/M03 Q1019 NOSIG

VFR

2°C / -2°C

[მეტი]
ქარი variable 0kt
ხილვადობა 9700m
ამინდი -
ღრუბლები Overcast 3800ft
წნევა 1019
ცვლილება No Significant change
დაუმუშავებელი UGTB 030100Z 00000KT 9999 OVC038 02/M02 Q1019 NOSIG

VFR

2°C / -2°C

[მეტი]
ქარი variable 0kt
ხილვადობა 9700m
ამინდი -
ღრუბლები Overcast 4100ft
წნევა 1020
ცვლილება No Significant change
დაუმუშავებელი UGTB 030030Z 00000KT 9999 OVC041 02/M02 Q1020 NOSIG

VFR

3°C / -3°C

[მეტი]
ქარი variable 0kt
ხილვადობა 9700m
ამინდი -
ღრუბლები Broken Clouds 3900ft
Overcast 4500ft
წნევა 1020
ცვლილება No Significant change
დაუმუშავებელი UGTB 030000Z 00000KT 9999 BKN039 OVC045 03/M03 Q1020 NOSIG

VFR

2°C / -3°C

[მეტი]
ქარი variable 0kt
ხილვადობა 9700m
ამინდი -
ღრუბლები Overcast 4200ft
წნევა 1020
ცვლილება No Significant change
დაუმუშავებელი UGTB 022330Z 00000KT 9999 OVC042 02/M03 Q1020 NOSIG

VFR

3°C / -3°C

[მეტი]
ქარი variable 0kt
ხილვადობა 9700m
ამინდი -
ღრუბლები Overcast 4400ft
წნევა 1020
ცვლილება No Significant change
დაუმუშავებელი UGTB 022300Z 00000KT 9999 OVC044 03/M03 Q1020 NOSIG

VFR

2°C / -3°C

[მეტი]
ქარი 2kt
ხილვადობა 9700m
ამინდი -
ღრუბლები Overcast 4400ft
წნევა 1020
ცვლილება No Significant change
დაუმუშავებელი UGTB 022230Z VRB02KT 9999 OVC044 02/M03 Q1020 NOSIG

VFR

2°C / -3°C

[მეტი]
ქარი 60º 3kt
ხილვადობა 9700m
ამინდი -
ღრუბლები Overcast 4500ft
წნევა 1021
ცვლილება No Significant change
დაუმუშავებელი UGTB 022200Z 06003KT 9999 OVC045 02/M03 Q1021 NOSIG

VFR

2°C / -3°C

[მეტი]
ქარი 40º 4kt
ხილვადობა 9700m
ამინდი -
ღრუბლები Overcast 4600ft
წნევა 1021
ცვლილება No Significant change
დაუმუშავებელი UGTB 022130Z 04004KT 9999 OVC046 02/M03 Q1021 NOSIG

VFR

2°C / -3°C

[მეტი]
ქარი 40º variable 350º to 080º 5kt
ხილვადობა 9700m
ამინდი -
ღრუბლები Overcast 4700ft
წნევა 1021
ცვლილება No Significant change
დაუმუშავებელი UGTB 022100Z 04005KT 350V080 9999 OVC047 02/M03 Q1021 NOSIG

VFR

1°C / -3°C

[მეტი]
ქარი 50º 6kt
ხილვადობა 9700m
ამინდი -
ღრუბლები Broken Clouds 4700ft
წნევა 1021
ცვლილება No Significant change
დაუმუშავებელი UGTB 022030Z 05006KT 9999 BKN047 01/M03 Q1021 NOSIG

VFR

0°C / -3°C

[მეტი]
ქარი 30º 3kt
ხილვადობა 9700m
ამინდი -
ღრუბლები Few Clouds 4700ft
წნევა 1021
ცვლილება No Significant change
დაუმუშავებელი UGTB 022000Z 03003KT 9999 FEW047 00/M03 Q1021 NOSIG

VFR

1°C / -4°C

[მეტი]
ქარი 80º 4kt
ხილვადობა 9700m
ამინდი -
ღრუბლები Clouds and Visibility OK
წნევა 1021
ცვლილება No Significant change
დაუმუშავებელი UGTB 021930Z 08004KT CAVOK 01/M04 Q1021 NOSIG

VFR

2°C / -4°C

[მეტი]
ქარი 110º 6kt
ხილვადობა 9700m
ამინდი -
ღრუბლები Clouds and Visibility OK
წნევა 1021
ცვლილება No Significant change
დაუმუშავებელი UGTB 021900Z 11006KT CAVOK 02/M04 Q1021 NOSIG

VFR

1°C / -4°C

[მეტი]
ქარი 90º 5kt
ხილვადობა 9700m
ამინდი -
ღრუბლები Clouds and Visibility OK
წნევა 1021
ცვლილება No Significant change
დაუმუშავებელი UGTB 021830Z 09005KT CAVOK 01/M04 Q1021 NOSIG

VFR

2°C / -4°C

[მეტი]
ქარი 60º 6kt
ხილვადობა 9700m
ამინდი -
ღრუბლები Clouds and Visibility OK
წნევა 1021
ცვლილება No Significant change
დაუმუშავებელი UGTB 021800Z 06006KT CAVOK 02/M04 Q1021 NOSIG

VFR

2°C / -3°C

[მეტი]
ქარი 50º 7kt
ხილვადობა 9700m
ამინდი -
ღრუბლები Clouds and Visibility OK
წნევა 1021
ცვლილება No Significant change
დაუმუშავებელი UGTB 021730Z 05007KT CAVOK 02/M03 Q1021 NOSIG

TAF თბილისი (UGTB)-თვის

From till


Maximum Temperature 8ºC on . Minimum Temperature 3ºC on .
From till Wind 140º 5kt. Visibility 9000m. Broken Clouds 4000ft.
Temporarly from till Scattered Clouds 5500ft.

დაუმუშავებელი: TAF UGTB 030500Z 0306/0406 14005KT 9000 BKN040 TX08/0312Z TN03/0403Z TEMPO 0311/0319 SCT055

რადარის და ნალექების მაჩვენებელი თბილისი -თვის

გაწურეთ
Მსუბუქი
ზომიერი
Მძიმე
Ძალიან მძიმე
სეტყვა

მდებარეობის მარკერი მოთავსებულია თბილისი -ზე. ეს ანიმაცია აჩვენებს ნალექის რადარს არჩეული დროის დიაპაზონისთვის, ასევე 2h პროგნოზს. ნარინჯისფერი ჯვრები მიუთითებს ელვაზე. nowcast.de-ის მიერ მოწოდებული მონაცემები (ხელმისაწვდომია აშშ-ში, ევროპაში, ავსტრალიაში). წვიმა ან მსუბუქი თოვლი შეიძლება იყოს უხილავი რადარისთვის. ნალექის ინტენსივობა არის ფერადი კოდირებული, დაწყებული ფირუზისფერიდან წითამდე.

მიმდინარე სატელიტისა და წვიმის სურათები თბილისი-თვის, საქართველო

ლოკაციის მარკერი დაყენებყლია თბილისიზე. [მეტი]

რეალურ დროში სატელიტური სურათი აერთიანებს ხილულ სინათლეს დღისით ღამის განმავლობაში ინფრაწითელ გამოსხივებასთან ერთად. ღამით, სურათი არ არის მუქი, რადგან ინფრაწითელ გამოსხივებას შეუძლია ტემპერატურის განსხვავებების დადგენა. სამწუხაროდ, დაბალი ღრუბლები და ნისლი ძნელია განასხვავონ მიწის ტემპერატურისგან და, შესაბამისად, ისინი შეიძლება თითქმის არ ჩანდეს ღამით. Meteosat სატელიტური გამოსახულება ევროპისთვის ახლდება რეალურ დროში ყოველ 5 წუთში. GOES-16/GOES-17 (ჩრდილოეთი და სამხრეთ ამერიკა) და ჰიმავარი (აზია) გამოსახულებები ახლდება ყოველ 10 წუთში.

ნალექი შეფასებულია რადარებიდან და თანამგზავრებიდან. სატელიტების ნალექის შეფასებები ღამით ნაკლებად ზუსტია, ვიდრე დღისით.

© 2024 meteoblue, NOAA Satellites GOES-16 and EUMETSAT. ელვის შესახებ მონაცემები მოწოდებული nowcast მიერ.

თავში დაბრუნება
×
გამარჯობა,
როგორც ჩანს, რეკლამის ბლოკერს იყენებთ.

რეკლამა აუცილებელია ჩვენი უფასო ვებსაიტის უნიკალური დეტალებითა და სიზუსტით შესანარჩუნებლად.

გთხოვთ თეთრი სია www.meteoblue.com თქვენს რეკლამის ბლოკერზე ან განიხილოთ ჩვენი ერთ-ერთი პროდუქტის შეძენა:

უკვე გაქვთ გამოწერა?
შემდეგ გთხოვთ შედით სისტემაში.